This is the latest recevied weather packets stored in our database for station/object IW2HNF-3. If no packets are shown the sender has not sent any weather packets the latest 10 day(s).
| Time | Temp. | Humidity | Pressure | Rain* | Wind** | Luminosity | Snow |
|---|---|---|---|---|---|---|---|
| 1777718439 | 20° C | 34% | 1023.9 hPa | 0 mm | - | - | - |
| 1777717863 | 20° C | 34% | 1024 hPa | 0 mm | - | - | - |
| 1777717239 | 19.44° C | 36% | 1024 hPa | 0 mm | - | - | - |
| 1777716662 | 19.44° C | 36% | 1024.2 hPa | 0 mm | - | - | - |
| 1777716470 | 19.44° C | 37% | 1024.3 hPa | 0 mm | - | - | - |
| 1777715462 | 18.89° C | 39% | 1024.4 hPa | 0 mm | - | - | - |
| 1777714838 | 18.33° C | 38% | 1024.6 hPa | 0 mm | - | - | - |
| 1777714263 | 18.89° C | 39% | 1024.7 hPa | 0 mm | - | - | - |
| 1777713638 | 18.33° C | 41% | 1024.8 hPa | 0 mm | - | - | - |
| 1777713062 | 18.33° C | 40% | 1024.9 hPa | 0 mm | - | - | - |
| 1777712151 | 17.78° C | 41% | 1024.9 hPa | 0 mm | - | - | - |
| 1777710662 | 17.78° C | 42% | 1025.1 hPa | 0 mm | - | - | - |
| 1777710038 | 17.78° C | 42% | 1025.1 hPa | 0 mm | - | - | - |
| 1777709463 | 17.22° C | 42% | 1025.1 hPa | 0 mm | - | - | - |
| 1777709271 | 17.22° C | 43% | 1025.1 hPa | 0 mm | - | - | - |
| 1777708263 | 17.22° C | 44% | 1025.2 hPa | 0 mm | - | - | - |
| 1777707638 | 17.22° C | 44% | 1025.2 hPa | 0 mm | - | - | - |
| 1777707062 | 17.22° C | 46% | 1025.2 hPa | 0 mm | - | - | - |
| 1777706439 | 16.67° C | 47% | 1025.2 hPa | 0 mm | - | - | - |
| 1777705863 | 16.67° C | 52% | 1025.2 hPa | 0 mm | - | - | - |
| 1777705238 | 16.11° C | 54% | 1025.3 hPa | 0 mm | - | - | - |
| 1777704663 | 15.56° C | 56% | 1025.3 hPa | 0 mm | - | - | - |
| 1777704038 | 15° C | 56% | 1025.3 hPa | 0 mm | - | - | - |
| 1777703463 | 14.44° C | 59% | 1025.2 hPa | 0 mm | - | - | - |
| 1777702839 | 13.89° C | 59% | 1025.2 hPa | 0 mm | - | - | - |
* Rain latest hour (hover to see other rain measurements)
** Current wind speed in m/s (hover to see current wind gust speed)